Location: Zagreb
(45.8000°N, 16.0000°E)
Time: 00:03:24
(UTC+01:00)

Transit 2A Rocket - Pass Details

Date: 03 October 2020
Orbit: 586 x 916 km, 66.7° (Epoch: 28 October)

Event Time Altitude Azimuth Distance (km) Brightness Sun altitude
Rises 15:10:04 0° 165° (SSE) 3,500 8.8 30.5°
Reaches altitude 10° 15:13:14 10° 149° (SSE) 2,589 8.0 30.1°
Maximum altitude 15:17:24 20° 105° (ESE) 2,008 7.1 29.6°
Drops below altitude 10° 15:21:34 10° 62° (ENE) 2,605 7.3 29.0°
Sets 15:24:45 0° 46° (NE) 3,530 7.9 28.6°
